When you browse on this site, cookies collect data to enhance your experience and personalize the content and advertising you see.
Visit our Privacy Policy to learn more. By continuing to use the site, you agree to this use of cookies and data.
  • In United Kingdom
  • List of Countries
  • For 7 days
  • Water Temperature
  • Weather Map
  • Weather Widgets
  • user-avatar
    Login

    Hourly Weather Huánuco

    Today, 19 September, Thursday

    Time Temperature Precipitation Wind Pressure Humidity
    00:00 +17°C° 0 mm 0 mps 595 mmHg 90%
    01:00 +16°C° 0 mm 0 mps 595 mmHg 91%
    02:00 +16°C° 0 mm 0 mps 595 mmHg 91%
    03:00 +15°C° 0 mm 0 mps 595 mmHg 91%
    04:00 +15°C° 0 mm 0 mps 594 mmHg 91%
    05:00 +16°C° 0 mm 0 mps 595 mmHg 88%
    06:00 +17°C° 0 mm 0 mps 596 mmHg 85%
    07:00 +17°C° 0 mm 0 mps 597 mmHg 82%
    08:00 +21°C° 0 mm 1 mps 597 mmHg 76%
    09:00 +23°C° 0 mm 1 mps 597 mmHg 70%
    10:00 +24°C° 0 mm 2 mps 598 mmHg 63%
    11:00 +25°C° 0.3 mm 3 mps 598 mmHg 61%
    12:00 +26°C° 0.3 mm 3 mps 597 mmHg 58%
    13:00 +26°C° 0.3 mm 4 mps 597 mmHg 56%
    14:00 +26°C° 0.3 mm 4 mps 596 mmHg 60%
    15:00 +25°C° 0.3 mm 4 mps 596 mmHg 64%
    16:00 +23°C° 0.3 mm 4 mps 595 mmHg 69%
    17:00 +22°C° 0.3 mm 3 mps 595 mmHg 75%
    18:00 +21°C° 0.3 mm 2 mps 595 mmHg 82%
    19:00 +20°C° 0.3 mm 1 mps 596 mmHg 89%
    20:00 +20°C° 0.1 mm 1 mps 596 mmHg 90%
    21:00 +20°C° 0.1 mm 1 mps 596 mmHg 91%
    22:00 +17°C° 0.1 mm 0 mps 596 mmHg 92%
    23:00 +17°C° 0.2 mm 0 mps 596 mmHg 91%

    Tomorrow, 20 September, Friday

    Time Temperature Precipitation Wind Pressure Humidity
    00:00 +17°C° 0.2 mm 0 mps 596 mmHg 90%
    01:00 +17°C° 0.2 mm 0 mps 596 mmHg 89%
    02:00 +17°C° 0.2 mm 0 mps 596 mmHg 88%
    03:00 +17°C° 0.2 mm 0 mps 595 mmHg 88%
    04:00 +17°C° 0.2 mm 0 mps 595 mmHg 87%
    05:00 +17°C° 0.1 mm 0 mps 596 mmHg 86%
    06:00 +19°C° 0.1 mm 1 mps 597 mmHg 86%
    07:00 +19°C° 0.1 mm 1 mps 597 mmHg 85%
    08:00 +20°C° 0.9 mm 1 mps 598 mmHg 83%
    09:00 +20°C° 0.9 mm 2 mps 598 mmHg 81%
    10:00 +21°C° 0.9 mm 3 mps 598 mmHg 78%
    11:00 +21°C° 1 mm 2 mps 598 mmHg 76%
    12:00 +21°C° 1 mm 2 mps 597 mmHg 73%
    13:00 +22°C° 1 mm 1 mps 597 mmHg 70%
    14:00 +21°C° 0.4 mm 2 mps 597 mmHg 70%
    15:00 +23°C° 0.4 mm 2 mps 597 mmHg 69%
    16:00 +23°C° 0.4 mm 2 mps 596 mmHg 69%
    17:00 +21°C° 0.2 mm 2 mps 596 mmHg 76%
    18:00 +20°C° 0.2 mm 1 mps 596 mmHg 83%
    19:00 +19°C° 0.2 mm 1 mps 596 mmHg 90%
    20:00 +19°C° 0 mm 1 mps 596 mmHg 90%
    21:00 +16°C° 0 mm 0 mps 597 mmHg 90%
    22:00 +16°C° 0 mm 0 mps 597 mmHg 89%
    23:00 +16°C° 0 mm 0 mps 597 mmHg 90%

    Day after tomorrow, 21 September, Saturday

    Time Temperature Precipitation Wind Pressure Humidity
    00:00 +16°C° 0 mm 0 mps 596 mmHg 90%
    01:00 +15°C° 0 mm 0 mps 596 mmHg 90%
    02:00 +15°C° 0 mm 0 mps 596 mmHg 90%
    03:00 +15°C° 0 mm 0 mps 596 mmHg 90%
    04:00 +15°C° 0 mm 0 mps 596 mmHg 90%
    05:00 +16°C° 0 mm 0 mps 597 mmHg 87%
    06:00 +16°C° 0 mm 0 mps 597 mmHg 84%
    07:00 +17°C° 0 mm 0 mps 598 mmHg 81%
    08:00 +20°C° 0.2 mm 1 mps 599 mmHg 76%
    09:00 +20°C° 0.2 mm 2 mps 599 mmHg 70%
    10:00 +23°C° 0.2 mm 2 mps 600 mmHg 64%
    11:00 +21°C° 0.3 mm 2 mps 599 mmHg 69%
    12:00 +20°C° 0.3 mm 3 mps 598 mmHg 74%
    13:00 +20°C° 0.3 mm 3 mps 598 mmHg 79%
    14:00 +20°C° 0.4 mm 3 mps 597 mmHg 77%
    15:00 +20°C° 0.4 mm 2 mps 597 mmHg 75%
    16:00 +21°C° 0.4 mm 2 mps 597 mmHg 73%
    17:00 +20°C° 0 mm 2 mps 597 mmHg 78%
    18:00 +20°C° 0 mm 1 mps 597 mmHg 83%
    19:00 +19°C° 0 mm 1 mps 597 mmHg 87%
    20:00 +19°C° 0 mm 1 mps 597 mmHg 87%
    21:00 +19°C° 0 mm 1 mps 598 mmHg 86%
    22:00 +19°C° 0 mm 1 mps 598 mmHg 86%
    23:00 +19°C° 0 mm 1 mps 598 mmHg 85%

    22 September, Sunday

    Time Temperature Precipitation Wind Pressure Humidity
    00:00 +16°C° 0 mm 0 mps 598 mmHg 85%
    01:00 +16°C° 0 mm 0 mps 597 mmHg 85%
    02:00 +16°C° 0 mm 0 mps 597 mmHg 85%
    03:00 +15°C° 0 mm 0 mps 597 mmHg 85%
    04:00 +15°C° 0 mm 0 mps 596 mmHg 85%
    05:00 +16°C° 0 mm 0 mps 597 mmHg 82%
    06:00 +16°C° 0 mm 0 mps 598 mmHg 79%
    07:00 +17°C° 0 mm 0 mps 599 mmHg 76%
    08:00 +21°C° 0.2 mm 1 mps 599 mmHg 72%
    09:00 +21°C° 0.2 mm 2 mps 600 mmHg 68%
    10:00 +22°C° 0.2 mm 3 mps 601 mmHg 63%
    11:00 +22°C° 0.6 mm 3 mps 600 mmHg 64%
    12:00 +24°C° 0.6 mm 3 mps 600 mmHg 64%
    13:00 +24°C° 0.6 mm 3 mps 599 mmHg 65%
    14:00 +22°C° 0.7 mm 3 mps 599 mmHg 68%
    15:00 +22°C° 0.7 mm 3 mps 598 mmHg 72%
    16:00 +21°C° 0.7 mm 3 mps 597 mmHg 75%
    17:00 +20°C° 0.3 mm 2 mps 597 mmHg 81%
    18:00 +20°C° 0.3 mm 1 mps 597 mmHg 86%
    19:00 +17°C° 0.3 mm 0 mps 597 mmHg 92%
    20:00 +17°C° 0 mm 0 mps 597 mmHg 92%
    21:00 +18°C° 0 mm 1 mps 597 mmHg 92%
    22:00 +18°C° 0 mm 1 mps 598 mmHg 92%
    23:00 +18°C° 0 mm 1 mps 597 mmHg 91%

    23 September, Monday

    Time Temperature Precipitation Wind Pressure Humidity
    00:00 +16°C° 0 mm 0 mps 597 mmHg 89%
    01:00 +15°C° 0 mm 0 mps 597 mmHg 87%
    02:00 +16°C° 0.1 mm 0 mps 597 mmHg 87%
    03:00 +16°C° 0.1 mm 0 mps 597 mmHg 86%
    04:00 +16°C° 0.1 mm 0 mps 597 mmHg 85%
    05:00 +16°C° 0.1 mm 0 mps 598 mmHg 82%
    06:00 +17°C° 0.1 mm 0 mps 598 mmHg 79%
    07:00 +18°C° 0.1 mm 0 mps 599 mmHg 77%
    08:00 +20°C° 0.3 mm 1 mps 599 mmHg 77%
    09:00 +20°C° 0.3 mm 1 mps 599 mmHg 77%
    10:00 +20°C° 0.3 mm 2 mps 599 mmHg 77%
    11:00 +21°C° 0.4 mm 2 mps 599 mmHg 73%
    12:00 +22°C° 0.4 mm 3 mps 599 mmHg 70%
    13:00 +24°C° 0.4 mm 3 mps 599 mmHg 67%
    14:00 +22°C° 0.4 mm 3 mps 599 mmHg 68%
    15:00 +22°C° 0.4 mm 3 mps 598 mmHg 69%
    16:00 +22°C° 0.4 mm 3 mps 598 mmHg 70%
    17:00 +20°C° 0.1 mm 2 mps 597 mmHg 75%
    18:00 +20°C° 0.1 mm 1 mps 597 mmHg 81%
    19:00 +19°C° 0.1 mm 1 mps 597 mmHg 86%
    20:00 +19°C° 0 mm 1 mps 597 mmHg 87%
    21:00 +18°C° 0 mm 1 mps 598 mmHg 88%
    22:00 +18°C° 0 mm 1 mps 598 mmHg 88%
    23:00 +18°C° 0 mm 1 mps 598 mmHg 89%

    24 September, Tuesday

    Time Temperature Precipitation Wind Pressure Humidity
    00:00 +15°C° 0 mm 0 mps 597 mmHg 89%
    01:00 +15°C° 0 mm 0 mps 597 mmHg 89%
    02:00 +15°C° 0.1 mm 0 mps 597 mmHg 89%
    03:00 +16°C° 0.1 mm 1 mps 597 mmHg 88%
    04:00 +15°C° 0.1 mm 1 mps 597 mmHg 88%
    05:00 +16°C° 0.1 mm 1 mps 598 mmHg 84%
    06:00 +18°C° 0.1 mm 1 mps 598 mmHg 81%
    07:00 +19°C° 0.1 mm 1 mps 599 mmHg 77%
    08:00 +21°C° 0.1 mm 1 mps 600 mmHg 67%
    09:00 +21°C° 0.1 mm 2 mps 601 mmHg 56%
    10:00 +24°C° 0.1 mm 3 mps 601 mmHg 46%
    11:00 +24°C° 0 mm 3 mps 601 mmHg 46%
    12:00 +25°C° 0 mm 3 mps 600 mmHg 46%
    13:00 +25°C° 0 mm 4 mps 600 mmHg 46%
    14:00 +25°C° 0.2 mm 3 mps 599 mmHg 50%
    15:00 +24°C° 0.2 mm 3 mps 598 mmHg 55%
    16:00 +22°C° 0.2 mm 3 mps 598 mmHg 60%
    17:00 +21°C° 0.1 mm 2 mps 597 mmHg 67%
    18:00 +21°C° 0.1 mm 1 mps 597 mmHg 74%
    19:00 +17°C° 0.1 mm 0 mps 596 mmHg 81%
    20:00 +19°C° 0 mm 1 mps 597 mmHg 82%
    21:00 +18°C° 0 mm 1 mps 597 mmHg 82%
    22:00 +18°C° 0 mm 1 mps 598 mmHg 83%
    23:00 +16°C° 0 mm 1 mps 598 mmHg 83%
    Show more